Location: Moulis
(42.9609°N, 1.0909°E)
Time: 02:46:23
(UTC+00:00)

COSMOS 2455 - Pass Details

Date: 11 December 2025
Orbit: 898 x 910 km, 67.1° (Epoch: 12 January)

Event Time Altitude Azimuth Distance (km) Brightness Sun altitude
Rises 19:05:33 0° 206° (SSW) 3,515 6.3 -29.2°
Reaches altitude 10° 19:08:02 10° 206° (SSW) 2,579 5.5 -29.6°
Enters shadow 19:12:50 59° 198° (SSW) 1,037 3.1 -30.5°
